This demonstration page uses our WeatherBlox Daily Observations layout. Learn more.

Left ArrowRight Arrow

39.12711, -84.51439

Hourly Observations for June 15, 2018

Temp ( °F °C ) Dew Point ( °F °C ) Humidity (%) Winds ( mph kmh ) Pressure ( in mb ) Visibility ( mi km ) Precip ( " mm )
12:53 am 00:53 Clear 64 17.8 62 16.7 93 93 N N/A 30.01 1016 10 16 N/A
1:53 am 01:53 Clear 61 16.1 61 16.1 100 100 N N/A 30.02 1017 10 16 N/A
2:53 am 02:53 Clear 62 16.7 61 16.1 96 96 N N/A 30.03 1017 10 16 N/A
3:53 am 03:53 Clear 62 16.7 61 16.1 96 96 N N/A 30.04 1017 10 16 N/A
4:53 am 04:53 Clear 59 15 59 15 100 100 N N/A 30.05 1018 10 16 N/A
5:53 am 05:53 Clear 61 16.1 61 16.1 100 100 NNE 3 6 30.06 1018 9 14 N/A
6:53 am 06:53 Sunny 61 16.1 61 16.1 100 100 NE 3 6 30.07 1018 9 14 N/A
7:53 am 07:53 Sunny 65 18.3 63 17.2 93 93 NNE 3 6 30.07 1018 10 16 N/A
8:53 am 08:53 Sunny 70 21.1 64 17.8 82 82 SW 3 6 30.06 1018 10 16 N/A
9:53 am 09:53 Sunny 76 24.4 63 17.2 64 64 SSW 5 7 30.05 1018 10 16 N/A
10:53 am 10:53 Sunny 79 26.1 63 17.2 58 58 SSW 8 13 30.04 1017 10 16 N/A
11:53 am 11:53 Sunny 81 27.2 64 17.8 57 57 SE 6 9 30.04 1017 10 16 N/A
12:53 pm 12:53 Sunny 83 28.3 60 15.6 46 46 N N/A 30.04 1017 10 16 N/A
1:53 pm 13:53 Sunny 85 29.4 61 16.1 45 45 N N/A 30.02 1017 10 16 N/A
2:53 pm 14:53 Sunny 86 30 59 15 40 40 VRB 3 6 30.01 1016 10 16 N/A
3:53 pm 15:53 Sunny 86 30 59 15 40 40 N N/A 30.00 1016 10 16 N/A
4:53 pm 16:53 Sunny 88 31.1 61 16.1 40 40 NE 7 11 29.98 1015 10 16 N/A
5:53 pm 17:53 Sunny 87 30.6 60 15.6 40 40 ENE 5 7 29.98 1015 10 16 N/A
6:53 pm 18:53 Sunny 86 30 61 16.1 43 43 SE 3 6 29.97 1015 10 16 N/A
7:53 pm 19:53 Sunny 82 27.8 64 17.8 55 55 SE 3 6 29.96 1015 10 16 N/A
8:53 pm 20:53 Sunny 78 25.6 68 20 71 71 N N/A 29.97 1015 10 16 N/A
9:53 pm 21:53 Clear 72 22.2 66 18.9 82 82 N N/A 29.99 1016 10 16 N/A
10:53 pm 22:53 Clear 70 21.1 65 18.3 84 84 N N/A 30.01 1016 10 16 N/A
11:53 pm 23:53 Clear 68 20 65 18.3 90 90 N N/A 30.01 1016 10 16 N/A

Powered by AerisWeather